Stündliche Wetter Otminovo

Heute, 15 April, Donnerstag

Zeit Temperatur Niederschläge Wind Luftdruck Luftfeuchtigkeit
00:00 +4°C° 0.5 mm 4 m/S 748 mmHg 96%
01:00 +4°C° 0.5 mm 4 m/S 748 mmHg 96%
02:00 +5°C° 0.5 mm 4 m/S 748 mmHg 96%
03:00 +5°C° 0.5 mm 4 m/S 748 mmHg 96%
04:00 +5°C° 0.5 mm 4 m/S 748 mmHg 96%
05:00 +5°C° 0.5 mm 4 m/S 748 mmHg 96%
06:00 +5°C° 0.2 mm 4 m/S 748 mmHg 96%
07:00 +5°C° 0.2 mm 4 m/S 748 mmHg 96%
08:00 +5°C° 0.2 mm 4 m/S 748 mmHg 95%
09:00 +5°C° 0 mm 4 m/S 748 mmHg 93%
10:00 +6°C° 0 mm 4 m/S 749 mmHg 91%
11:00 +6°C° 0 mm 4 m/S 749 mmHg 88%
12:00 +6°C° 0 mm 5 m/S 749 mmHg 87%
13:00 +5°C° 0 mm 5 m/S 749 mmHg 87%
14:00 +5°C° 0 mm 5 m/S 749 mmHg 86%
15:00 +3°C° 0.7 mm 5 m/S 748 mmHg 88%
16:00 +3°C° 0.7 mm 5 m/S 748 mmHg 91%
17:00 +3°C° 0.7 mm 4 m/S 748 mmHg 93%
18:00 +3°C° 0.9 mm 4 m/S 748 mmHg 93%
19:00 +2°C° 0.9 mm 5 m/S 748 mmHg 94%
20:00 +2°C° 0.9 mm 5 m/S 748 mmHg 94%
21:00 +3°C° 0.2 mm 5 m/S 747 mmHg 94%
22:00 +4°C° 0.2 mm 4 m/S 747 mmHg 94%
23:00 +4°C° 0.2 mm 4 m/S 747 mmHg 95%

Morgen, 16 April, Freitag

Zeit Temperatur Niederschläge Wind Luftdruck Luftfeuchtigkeit
00:00 +3°C° 0.3 mm 5 m/S 746 mmHg 95%
01:00 +3°C° 0.3 mm 5 m/S 746 mmHg 95%
02:00 +3°C° 0.3 mm 5 m/S 746 mmHg 95%
03:00 +3°C° 0 mm 5 m/S 746 mmHg 95%
04:00 +5°C° 0 mm 4 m/S 746 mmHg 96%
05:00 +5°C° 0 mm 4 m/S 746 mmHg 97%
06:00 +6°C° 0 mm 4 m/S 746 mmHg 94%
07:00 +7°C° 0 mm 4 m/S 746 mmHg 92%
08:00 +7°C° 0 mm 4 m/S 746 mmHg 90%
09:00 +8°C° 0.1 mm 5 m/S 747 mmHg 86%
10:00 +9°C° 0.1 mm 5 m/S 747 mmHg 81%
11:00 +10°C° 0.1 mm 5 m/S 747 mmHg 77%
12:00 +12°C° 0.9 mm 5 m/S 747 mmHg 77%
13:00 +12°C° 0.9 mm 5 m/S 747 mmHg 76%
14:00 +11°C° 0.9 mm 6 m/S 747 mmHg 76%
15:00 +12°C° 0.6 mm 5 m/S 747 mmHg 75%
16:00 +13°C° 0.6 mm 5 m/S 747 mmHg 73%
17:00 +13°C° 0.6 mm 4 m/S 747 mmHg 72%
18:00 +11°C° 0.3 mm 4 m/S 747 mmHg 76%
19:00 +10°C° 0.3 mm 3 m/S 748 mmHg 81%
20:00 +9°C° 0.3 mm 3 m/S 748 mmHg 86%
21:00 +8°C° 0.1 mm 3 m/S 748 mmHg 88%
22:00 +8°C° 0.1 mm 3 m/S 749 mmHg 91%
23:00 +8°C° 0.1 mm 3 m/S 749 mmHg 93%

übermorgen, 17 April, Samstag

Zeit Temperatur Niederschläge Wind Luftdruck Luftfeuchtigkeit
00:00 +7°C° 0 mm 3 m/S 749 mmHg 94%
01:00 +7°C° 0 mm 3 m/S 749 mmHg 95%
02:00 +5°C° 0 mm 3 m/S 749 mmHg 96%
03:00 +6°C° 0 mm 2 m/S 749 mmHg 96%
04:00 +5°C° 0 mm 2 m/S 750 mmHg 97%
05:00 +5°C° 0 mm 2 m/S 750 mmHg 97%
06:00 +5°C° 0 mm 3 m/S 750 mmHg 94%
07:00 +7°C° 0 mm 3 m/S 751 mmHg 90%
08:00 +8°C° 0 mm 3 m/S 751 mmHg 87%
09:00 +10°C° 0.1 mm 3 m/S 751 mmHg 80%
10:00 +11°C° 0.1 mm 3 m/S 751 mmHg 73%
11:00 +12°C° 0.1 mm 3 m/S 751 mmHg 66%
12:00 +13°C° 0.2 mm 3 m/S 751 mmHg 64%
13:00 +13°C° 0.2 mm 4 m/S 751 mmHg 62%
14:00 +14°C° 0.2 mm 4 m/S 751 mmHg 60%
15:00 +13°C° 0.4 mm 3 m/S 751 mmHg 62%
16:00 +13°C° 0.4 mm 3 m/S 751 mmHg 65%
17:00 +13°C° 0.4 mm 3 m/S 751 mmHg 67%
18:00 +12°C° 0.2 mm 3 m/S 752 mmHg 73%
19:00 +10°C° 0.2 mm 3 m/S 752 mmHg 80%
20:00 +9°C° 0.2 mm 2 m/S 752 mmHg 86%
21:00 +9°C° 0.1 mm 2 m/S 752 mmHg 88%
22:00 +8°C° 0.1 mm 2 m/S 752 mmHg 90%
23:00 +8°C° 0.1 mm 2 m/S 753 mmHg 92%

18 April, Sonntag

Zeit Temperatur Niederschläge Wind Luftdruck Luftfeuchtigkeit
00:00 +8°C° 0.2 mm 2 m/S 752 mmHg 92%
01:00 +9°C° 0.2 mm 1 m/S 752 mmHg 93%
02:00 +9°C° 0.2 mm 1 m/S 752 mmHg 93%
03:00 +8°C° 1.1 mm 1 m/S 752 mmHg 94%
04:00 +8°C° 1.1 mm 1 m/S 752 mmHg 94%
05:00 +8°C° 1.1 mm 1 m/S 752 mmHg 95%
06:00 +8°C° 0 mm 1 m/S 752 mmHg 92%
07:00 +8°C° 0 mm 1 m/S 752 mmHg 89%
08:00 +8°C° 0 mm 1 m/S 753 mmHg 86%
09:00 +9°C° 0 mm 2 m/S 753 mmHg 80%
10:00 +10°C° 0 mm 2 m/S 753 mmHg 74%
11:00 +12°C° 0 mm 2 m/S 753 mmHg 68%
12:00 +13°C° 0 mm 2 m/S 753 mmHg 64%
13:00 +13°C° 0 mm 2 m/S 753 mmHg 59%
14:00 +14°C° 0 mm 2 m/S 753 mmHg 55%
15:00 +14°C° 0 mm 2 m/S 753 mmHg 57%
16:00 +14°C° 0 mm 2 m/S 753 mmHg 59%
17:00 +13°C° 0 mm 3 m/S 753 mmHg 61%
18:00 +12°C° 0.1 mm 3 m/S 753 mmHg 66%
19:00 +11°C° 0.1 mm 3 m/S 753 mmHg 72%
20:00 +10°C° 0.1 mm 3 m/S 753 mmHg 78%
21:00 +9°C° 0 mm 2 m/S 753 mmHg 81%
22:00 +9°C° 0 mm 2 m/S 753 mmHg 84%
23:00 +9°C° 0 mm 2 m/S 753 mmHg 87%

19 April, Montag

Zeit Temperatur Niederschläge Wind Luftdruck Luftfeuchtigkeit
00:00 +8°C° 0 mm 2 m/S 753 mmHg 88%
01:00 +8°C° 0 mm 2 m/S 753 mmHg 88%
02:00 +8°C° 0 mm 2 m/S 753 mmHg 89%
03:00 +7°C° 0 mm 3 m/S 753 mmHg 89%
04:00 +7°C° 0 mm 3 m/S 753 mmHg 89%
05:00 +7°C° 0 mm 3 m/S 752 mmHg 90%
06:00 +8°C° 0 mm 3 m/S 752 mmHg 88%
07:00 +9°C° 0 mm 3 m/S 752 mmHg 86%
08:00 +8°C° 0 mm 4 m/S 752 mmHg 84%
09:00 +11°C° 0.1 mm 4 m/S 751 mmHg 79%
10:00 +12°C° 0.1 mm 5 m/S 751 mmHg 73%
11:00 +13°C° 0.1 mm 5 m/S 751 mmHg 68%
12:00 +13°C° 0.6 mm 6 m/S 751 mmHg 70%
13:00 +11°C° 0.6 mm 6 m/S 750 mmHg 73%
14:00 +11°C° 0.6 mm 6 m/S 750 mmHg 75%
15:00 +11°C° 0.3 mm 6 m/S 750 mmHg 74%
16:00 +11°C° 0.3 mm 6 m/S 749 mmHg 72%
17:00 +11°C° 0.3 mm 6 m/S 749 mmHg 71%
18:00 +11°C° 0.2 mm 6 m/S 749 mmHg 74%
19:00 +10°C° 0.2 mm 6 m/S 748 mmHg 78%
20:00 +9°C° 0.2 mm 5 m/S 748 mmHg 81%
21:00 +9°C° 0.3 mm 5 m/S 748 mmHg 84%
22:00 +8°C° 0.3 mm 5 m/S 747 mmHg 87%
23:00 +8°C° 0.3 mm 5 m/S 747 mmHg 89%

20 April, Dienstag

Zeit Temperatur Niederschläge Wind Luftdruck Luftfeuchtigkeit
00:00 +8°C° 0.2 mm 6 m/S 746 mmHg 89%
01:00 +8°C° 0.2 mm 6 m/S 746 mmHg 89%
02:00 +7°C° 0.2 mm 6 m/S 745 mmHg 90%
03:00 +7°C° 0.4 mm 6 m/S 744 mmHg 90%
04:00 +6°C° 0.4 mm 7 m/S 744 mmHg 90%
05:00 +6°C° 0.4 mm 7 m/S 743 mmHg 90%
06:00 +6°C° 0.5 mm 7 m/S 743 mmHg 90%
07:00 +6°C° 0.5 mm 7 m/S 742 mmHg 90%
08:00 +5°C° 0.5 mm 7 m/S 742 mmHg 91%
09:00 +5°C° 0.4 mm 7 m/S 741 mmHg 91%
10:00 +4°C° 0.4 mm 7 m/S 741 mmHg 92%
11:00 +4°C° 0.4 mm 7 m/S 740 mmHg 93%
12:00 +3°C° 0.4 mm 7 m/S 740 mmHg 93%
13:00 +3°C° 0.4 mm 7 m/S 740 mmHg 94%
14:00 +2°C° 0.4 mm 7 m/S 739 mmHg 95%
15:00 +2°C° 0.4 mm 6 m/S 739 mmHg 96%
16:00 +2°C° 0.4 mm 6 m/S 738 mmHg 96%
17:00 +1°C° 0.4 mm 6 m/S 738 mmHg 96%
18:00 +1°C° 1.4 mm 5 m/S 737 mmHg 96%
19:00 +1°C° 1.4 mm 5 m/S 737 mmHg 97%
20:00 +1°C° 1.4 mm 4 m/S 737 mmHg 97%
21:00 0°C° 1.2 mm 4 m/S 736 mmHg 97%
22:00 0°C° 1.2 mm 4 m/S 736 mmHg 98%
23:00 +1°C° 1.2 mm 3 m/S 736 mmHg 98%
Mehr zeigen

Wir brauchen deine Erlaubnis

Meteoprog und unser Service Anbieter werden persönliche Daten aufbewahren, so wie Cookies, Geräte Bezeichnung oder ähnliche Technologien von deinem Gerät und Prozess, so wie Persönliche Daten Inhalte und Werbungen, genauso wie social Media und den Verkehr zu analysieren.

  • Aufbewahrung und/oder Zugang zu deiner Geräte Informationen.

    Cookies, Geräte Bezeichnung oder andere Informationen, können aufbewahrt oder Zugang zu deinem Gerät erhalten, für den Grund, der oben angegeben wird.

  • Personalisierte Werbung und Inhalte, Messungen, Einblick in das Publikum und Produkt Entwicklung.

    Werbungen und Inhalte können personalisiert werden, basierend auf ein Profil. Mehr Daten können besser personalisierte Werbungen und Inhalte hinzufügen. Werbung und Inhalte können gezeigt und gemessen werden. Einblicke über das Publikum, welche die Werbung gesehen haben und den Inhalt, können abgeleitet werden. So wie Daten können genutzt werden, um es zu verbessern oder die Benutzer Erfahrung zu verbessern das System und die Software.

Wenn du “Ich stimme zu” klickst, erlaubst du uns, die Cookies zu benutzen die Geräte Bezeichnung, den Web oder ähnliche Technologien zu benutzen. Deine Settings, können in deinem Gerät bei deinem Browser geändert werden.

Für den bestimmten Zweck, berechtigten Interessen beruhen darauf, mehr als auf den Inhalt. Du kannst mehr darüber in unseren Privaten und Cookie Politik lesen.